Location: Newark
(43.0000°N, 1.6781°W)
Time: 07:28:54
(UTC+00:00)

Vanguard 1 - Pass Details

Date: 20 April 2021
Orbit: 649 x 3834 km, 34.2° (Epoch: 04 May)

Event Time Altitude Azimuth Distance (km) Brightness Sun altitude
Rises 18:59:54 0° 279° (W) 7,229 17.0 -1.7°
Reaches altitude 10° 19:04:34 10° 275° (W) 6,485 16.0 -2.5°
Maximum altitude 19:25:31 50° 209° (SSW) 4,459 13.4 -6.0°
Drops below altitude 10° 19:45:01 10° 142° (SE) 6,046 13.5 -9.3°
Enters shadow 19:47:02 - 139° (SE) 6,364 13.6 -9.6°
